DW2973 Weather Reports


Display with metric or nautical units.
time (UTC)temp
F
wind
direction
speed
MPH
gust
MPH
rain 1hr
in
rain 24hr
in
rain mn
in
humidity
%
barometer
mb
20221001211547 54 109 10.0 0.0 0.00 0.00 0.01 90 1000.6
20221001210038 54 115 11.0 0.0 0.00 0.00 0.01 91 1000.3
20221001204539 54 98 11.0 0.0 0.00 0.00 0.01 92 1000.0
20221001203042 54 103 8.0 0.0 0.00 0.00 0.01 93 999.9
20221001201549 53 99 6.0 0.0 0.00 0.00 0.01 93 999.8
20221001200039 53 98 5.0 0.0 0.00 0.00 0.01 93 999.7
20221001194534 53 107 5.0 0.0 0.00 0.00 0.01 92 999.4
20221001193035 54 104 6.0 0.0 0.00 0.00 0.01 91 999.5
20221001191540 54 105 9.0 0.0 0.00 0.00 0.00 91 999.3
20221001190032 54 117 9.0 0.0 0.00 0.00 0.00 91 999.2
20221001184533 53 112 7.0 0.0 0.00 0.00 0.00 91 999.1
20221001183032 53 120 7.0 0.0 0.00 0.00 0.00 92 999.0
20221001181531 53 96 7.0 0.0 0.00 0.00 0.00 92 998.7
20221001180034 53 121 4.0 0.0 0.00 0.00 0.00 93 998.4
20221001174532 53 111 5.0 0.0 0.00 0.00 0.00 93 998.3
20221001173030 53 132 6.0 0.0 0.00 0.00 0.00 93 998.1
20221001171531 52 100 4.0 0.0 0.00 0.00 0.00 94 997.7
20221001170028 52 115 4.0 0.0 0.00 0.00 0.00 94 997.7
20221001164531 52 107 3.0 0.0 0.00 0.00 0.00 94 997.5
20221001163028 52 85 2.0 0.0 0.00 0.00 0.00 93 997.5
20221001161529 52 113 1.0 0.0 0.00 0.00 0.00 93 997.4
20221001160026 52 111 1.0 0.0 0.00 0.00 0.00 93 997.3
20221001154526 52 111 1.0 0.0 0.00 0.00 0.00 93 997.3
20221001153029 52 96 1.0 0.0 0.00 0.00 0.00 93 997.1
20221001151530 52 118 3.0 0.0 0.00 0.00 0.00 92 997.1
20221001150024 52 106 3.0 0.0 0.00 0.00 0.00 92 997.0
20221001144524 52 86 2.0 0.0 0.00 0.00 0.00 92 996.9
20221001143025 52 92 3.0 0.0 0.00 0.00 0.00 91 996.9
20221001141533 52 78 3.0 0.0 0.00 0.00 0.00 91 996.8
20221001140021 52 84 3.0 0.0 0.00 0.00 0.00 90 997.0
20221001134527 52 67 4.0 0.0 0.00 0.00 0.00 90 997.0
20221001133021 52 84 4.0 0.0 0.00 0.00 0.00 89 997.0
20221001131523 52 57 4.0 0.0 0.00 0.00 0.00 89 997.0
20221001130017 52 38 4.0 0.0 0.00 0.00 0.00 88 997.1
20221001124519 52 338 4.0 0.0 0.00 0.00 0.00 88 997.2
20221001123018 52 271 5.0 0.0 0.00 0.00 0.00 87 997.2
20221001121518 52 328 6.0 0.0 0.00 0.00 0.00 86 997.3
20221001120017 53 120 7.0 0.0 0.00 0.00 0.00 85 997.3
20221001114515 53 32 7.0 0.0 0.00 0.00 0.00 84 997.4
20221001113018 53 28 7.0 0.0 0.00 0.00 0.00 83 997.5
20221001111511 54 28 7.0 0.0 0.00 0.00 0.00 81 997.6
20221001110014 54 332 7.0 0.0 0.00 0.00 0.00 80 997.6
20221001104506 54 146 7.0 0.0 0.00 0.00 0.00 80 997.8
20221001103006 54 42 6.0 0.0 0.00 0.00 0.00 81 997.9
20221001101510 54 331 7.0 0.0 0.00 0.00 0.00 81 998.1
20221001100101 53 105 6.0 0.0 0.00 0.00 0.00 82 998.3
20221001094558 53 122 5.0 0.0 0.00 0.00 0.00 83 998.5
20221001093056 53 59 4.0 0.0 0.00 0.00 0.00 84 998.5
20221001091555 53 330 5.0 0.0 0.00 0.00 0.00 85 998.8
20221001044530 52 90 5.0 0.0 0.00 0.00 0.00 85 1001.2
20221001043028 52 27 4.0 0.0 0.00 0.00 0.00 85 1001.2
20221001041529 52 41 4.0 0.0 0.00 0.00 0.00 85 1001.4
20221001040025 52 72 6.0 0.0 0.00 0.00 0.00 85 1001.5
20221001034523 52 36 6.0 0.0 0.00 0.00 0.00 85 1001.5
20221001033021 52 20 6.0 0.0 0.00 0.00 0.00 85 1001.8
20221001031526 52 38 6.0 0.0 0.00 0.00 0.00 85 1002.0
20221001030017 51 32 6.0 0.0 0.00 0.00 0.00 86 1002.2
20221001024515 51 40 5.0 0.0 0.00 0.00 0.00 86 1002.3
20221001023012 51 29 5.0 0.0 0.00 0.00 0.00 86 1002.4
20221001021510 51 332 4.0 0.0 0.00 0.00 0.00 86 1002.6
20221001020009 51 303 4.0 0.0 0.00 0.00 0.00 87 1002.9
20221001014505 51 342 5.0 0.0 0.00 0.00 0.00 87 1003.2
20221001013002 51 52 5.0 0.0 0.00 0.00 0.00 87 1003.3
20221001011613 51 24 5.0 0.0 0.00 0.00 0.00 87 1003.4
20221001010058 51 98 6.0 0.0 0.00 0.00 0.00 87 1003.7
20221001004555 51 59 5.0 0.0 0.00 0.00 0.00 88 1003.7
20221001003059 51 55 5.0 0.0 0.00 0.00 0.00 88 1004.0
20221001001602 51 77 6.0 0.0 0.00 0.00 0.00 88 1004.2
20221001000047 51 15 5.0 0.0 0.00 0.00 0.00 89 1004.3
20220930234553 51 67 6.0 0.0 0.00 0.00 0.00 89 1004.5
20220930233047 51 93 5.0 0.0 0.00 0.00 0.00 89 1004.7
20220930231542 51 28 6.0 0.0 0.00 0.00 0.00 89 1004.9
20220930230040 51 82 5.0 0.0 0.00 0.00 0.00 89 1005.1
20220930224540 51 336 4.0 0.0 0.00 0.00 0.00 89 1005.2
20220930223034 51 32 5.0 0.0 0.00 0.00 0.00 89 1005.1
20220930221534 51 58 5.0 0.0 0.00 0.00 0.00 89 1005.4
20220930214530 51 351 5.0 0.0 0.00 0.00 0.01 89 1005.7
20220930213041 52 53 5.0 0.0 0.00 0.00 0.01 89 1005.7